EHI
0 0 0 0 0 0 0 0 0 0 0 0 0 0 0 0 0 0 0 0 0 0 0 0 0 0 0 0 0 0 0 0 0 0 0 0 0 0 0 0 0 0 0
0 0 0 0 0 0 0 0 0 0 0 0 0 0 0 0 0 0 0 0 0 0 0 0 0 0 0 0 0 0 0 0 0 0 0 0 0 0 0 0 0 0 0
0 0 0 0 0 0 0 0 0 0 0 0 0 0 0 0 0 0 0 0 0 0 0 0 0 0 0 0 0 0 0 0 0 0 0 0 0 0 0 0 0 0 0
0 0 0 0 0 0 0 0 0 0 0 0 0 0 0 0 0 0 0 0 0 0 0 0 0 0 0 0 0 0 0 0 0 0 0 0 0 0 0 0 0 0 0
0 0 0 0 0 0 0 0 0 0 0 0 0 0 0 0 0 0 0 0 0 0 0 0 0 0 0 0 0 0 0 0 0 0 0 0 0 0 0 0 0 0 0
0 0 0 0 0 0 0 0 0 0 0 0 0 0 0 0 0 0 0 0 0 0 0 0 0 0 0 0 0 0 0 0 0 0 0 0 0 0 0 0 0 0 0
0 0 0 0 0 0 0 0 0 0 0 0 0 0 0 0 0 0 0 0 0 0 0 0 0 0 0 0 0 0 0 0 0 0 0 0 0 0 0 0 0 0 0
0 0 0 0 0 0 0 0 0 0 0 0 0 0 0 0 0 0 0 0 0 0 0 0 0 0 0 0 0 0 0 0 0 0 0 0 0 0 0 0 0 0 0
0 0 0 0 0 0 0 0 0 0 0 0 0 0 0 0 0 0 0 0 0 0 0 0 0 0 0 0 0 0 0 0 0 0 0 0 0 0 0 0 0 0 0
0 0 0 0 0 0 0 0 0 0 0 0 0 0 0 0 0 0 0 0 0 0 0 0 0 0 0 0 0 0 0 0 0 0 0 0 0 0 0 0 0 0 0
0 0 0 0 0 0 0 0 0 0 0 0 0 0 0 0 0 0 0 0 0 0 0 0 0 0 0 0 0 0 0 0 0 0 0 0 0 0 0 0 0 0 0
0 0 0 0 0 0 0 0 0 0 0 0 0 0 0 0 0 0 0 0 0 0 0 0 0 0 0 0 0 0 0 0 0 0 0 0 0 0 0 0 0 0 0
0 0 0 0 0 0 0 0 0 0 0 0 0 0 0 0 0 0 0 0 0 0 0 0 0 0 0 0 0 0 0 0 0 0 0 0 0 0 0 0 0 0 0
0 0 0 0 0 0 0 0 0 0 0 0 0 0 0 0 0 0 0 0 0 0 0 0 0 0 0 0 0 0 0 0 0 0 0 0 0 0 0 0 0 0 0
0 0 0 0 0 0 0 0 0 0 0 0 0 0 0 0 0 0 0 0 0 0 0 0 0 0 0 0 0 0 0 0 0 0 0 0 0 0 0 0 0 0 0
0 0 0 0 0 0 0 0 0 0 0 0 0 0 0 0 0 0 0 0 0 0 0 0 0 0 0 0 0 0 0 0 0 0 0 0 0 0 0 0 0 0 0
0 0 0 0 0 0 0 0 0 0 0 0 0 0 0 0 0 0 0 0 0 0 0 0 0 0 0 0 0 0 0 0 0 0 0 0 0 0 0 0 0 0 0
0 0 0 0 0 0 0 0 0 0 0 0 0 0 0 0 0 0 0 0 0 0 0 0 0 0 0 0 0 0 0 0 0 0 0 0 0 0 0 0 0 0 0
0 0 0 0 0 0 0 0 0 0 0 0 0 0 0 0 0 0 0 0 0 0 0 0 0 0 0 0 0 0 0 0 0 0 0 0 0 0 0 0 0 0 0
0 0 0 0 0 0 0 0 0 0 0 0 0 0 0 0 0 0 0 0 0 0 0 0 0 0 0 0 0 0 0 0 0 0 0 0 0 0 0 0 0 0 0
0 0 0 0 0 0 0 0 0 0 0 0 0 0 0 0 0 0 0 0 0 0 0 0 0 0 0 0 0 0 0 0 0 0 0 0 0 0 0 0 0 0 0
0 0 0 0 0 0 0 0 0 0 0 0 0 0 0 0 0 0 0 0 0 0 0 0 0 0 0 0 0 0 0 0 0 0 0 0 0 0 0 0 0 0 0
0 0 0 0 0 0 0 0 0 0 0 0 0 0 0 0 0 0 0 0 0 0 0 0 0 0 0 0 0 0 0 0 0 0 0 0 0 0 0 0 0 0 0
0 0 0 0 0 0 0 0 0 0 0 0 0 0 0 0 0 0 0 0 0 0 0 0 0 0 0 0 0 0 0 0 0 0 0 0 0 0 0 0 0 0 0
0 0 0 0 0 0 0 0 0 0 0 0 0 0 0 0 0 0 0 0 0 0 0 0 0 0 0 0 0 0 0 0 0 0 0 0 0 0 0 0 0 0 0
0 0 0 0 0 0 0 0 0 0 0 0 0 0 0 0 0 0 0 0 0 0 0 0 0 0 0 0 0 0 0 0 0 0 0 0 0 0 0 0 0 0 0
Wind_Speed
5 3 4 4 4 4 4 5 5 5 5 4 4 4 4 3 3 3 4 4 4 5 5 4 4 3 3 4 5 4 5 3 2 2 2 3 2 2 1 1 1 2 2
4 4 4 4 5 5 4 4 5 6 6 4 4 3 3 3 3 3 3 4 4 4 4 5 4 4 3 4 4 4 3 2 1 1 2 3 3 3 1 1 1 1 1
6 5 5 5 5 5 5 5 5 6 5 5 4 4 3 3 3 4 4 4 4 5 4 5 4 4 4 3 3 3 4 3 2 1 1 2 2 2 3 2 1 1 1
6 5 5 5 6 6 6 6 6 6 6 6 6 7 5 5 5 4 4 5 5 4 5 4 5 5 4 4 4 3 2 3 3 2 1 1 1 1 2 3 2 1 1
5 5 5 5 5 5 5 6 6 6 6 7 7 7 6 4 4 5 6 5 5 5 5 4 4 4 4 4 4 4 3 2 2 2 2 2 1 2 2 2 2 2 2
4 5 4 3 3 3 4 5 6 6 6 7 7 7 7 6 6 7 6 5 4 4 5 5 4 4 4 4 4 4 4 3 3 2 2 2 2 2 2 2 2 2 1
4 4 4 4 3 4 4 5 6 6 7 7 7 7 7 7 7 7 7 6 5 4 5 5 5 4 4 4 4 4 4 4 4 3 2 2 2 1 2 2 2 3 2
3 3 4 4 4 4 4 4 6 6 7 8 7 6 7 5 5 6 5 5 4 5 6 6 5 5 5 4 4 4 4 3 4 4 3 2 2 2 2 2 2 3 3
3 3 3 3 3 3 4 5 6 6 6 7 7 7 7 6 5 6 5 4 4 4 6 6 6 5 5 5 5 3 4 4 4 3 4 3 2 2 2 3 3 3 4
4 3 2 2 2 3 3 4 5 6 6 6 6 5 6 6 6 6 6 6 6 5 6 6 6 6 5 5 5 4 4 4 3 3 3 3 2 2 3 3 3 4 4
5 3 3 1 1 1 2 3 4 5 5 6 6 6 6 6 6 6 6 6 6 6 6 6 6 6 6 6 5 5 5 5 5 4 4 4 4 3 3 3 3 4 4
4 3 2 2 1 1 1 3 4 4 5 5 6 6 6 6 6 6 6 6 6 6 6 6 6 6 6 6 6 6 6 6 5 5 5 5 4 5 4 3 4 4 5
4 3 2 1 1 1 1 2 3 3 4 5 6 6 7 7 7 7 6 6 6 6 6 6 7 6 6 6 6 6 6 6 5 5 5 5 5 5 4 4 4 4 4
4 3 2 2 1 1 1 2 2 3 3 5 6 6 7 7 7 6 6 6 6 7 7 7 6 6 6 6 6 5 5 5 5 5 5 5 6 6 5 5 5 5 5
5 4 3 3 2 1 1 2 2 2 3 4 5 5 5 5 6 6 6 6 6 6 6 6 6 6 5 5 6 6 6 6 5 5 5 6 6 6 6 5 5 5 5
5 5 4 4 3 2 2 2 2 2 3 4 4 4 4 5 6 6 6 6 6 6 6 7 6 6 5 6 8 6 6 6 6 6 6 5 6 7 9 9 9 8 8
6 6 5 5 4 3 3 3 2 2 3 4 4 4 5 5 5 6 6 6 6 6 6 6 6 6 6 8 9 9 6 6 6 6 6 5 5 7 7 8 10 11 12
7 6 6 6 5 4 3 2 2 2 3 3 3 4 4 5 5 5 6 6 5 6 6 6 6 6 6 8 10 10 8 7 7 7 7 7 6 6 7 7 8 8 9
7 6 6 5 4 3 2 2 2 2 2 3 3 3 4 4 5 6 6 5 5 5 5 5 6 7 6 9 10 9 6 6 7 7 7 7 7 8 8 8 8 9 8
6 6 5 5 4 3 2 2 2 2 3 3 3 3 4 4 5 5 5 4 4 5 4 5 6 7 7 8 10 10 6 6 6 6 7 9 9 8 9 8 8 9 8
6 5 5 4 4 3 2 2 3 4 3 3 3 3 4 4 4 4 4 4 4 4 5 5 5 6 7 8 10 11 7 6 6 5 5 5 9 10 10 10 8 9 8
6 5 5 4 4 3 3 3 4 3 2 3 3 3 4 3 3 4 4 4 4 5 5 5 5 5 5 7 8 11 11 8 7 6 5 5 8 10 10 9 9 10 9
6 5 5 5 4 4 3 4 4 3 2 2 3 3 3 3 3 4 4 4 4 4 4 4 4 4 4 5 8 10 11 11 7 5 6 7 9 9 8 9 10 9 6
6 5 5 5 5 4 4 4 3 3 3 3 3 3 3 3 3 3 3 4 4 4 4 4 5 4 4 4 4 5 6 7 6 5 6 7 8 8 8 7 7 6 6
5 5 5 5 5 5 4 4 3 2 3 3 3 3 3 3 3 3 3 4 5 4 5 4 4 4 5 5 6 5 4 4 5 4 4 4 4 5 5 5 5 5 5
5 5 5 5 5 4 4 3 2 2 3 2 3 2 2 2 2 2 2 3 5 6 7 8 7 6 7 7 8 9 8 8 7 5 5 5 5 5 5 5 5 5 5
Wind_Direction
245 220 203 195 184 179 184 180 178 178 177 170 168 168 173 165 164 158 158 166 163 164 166 154 155 163 163 157 157 149 138 123 132 148 141 132 124 123 119 121 118 105 85
238 216 198 188 190 187 188 190 189 186 186 184 177 173 157 161 157 151 161 166 165 164 173 167 162 162 157 151 154 159 150 132 157 192 184 172 170 159 146 149 141 133 129
235 219 202 195 197 197 194 194 197 194 189 177 160 138 131 142 162 169 172 175 176 168 169 167 161 160 164 157 159 171 172 156 149 216 257 223 185 149 161 168 179 171 172
234 226 213 205 202 202 200 198 193 191 185 177 176 172 180 184 185 174 169 167 175 171 164 165 163 163 161 160 165 167 166 168 166 162 271 317 355 221 178 173 177 196 235
243 233 224 218 211 203 195 194 191 187 183 185 185 185 189 184 164 162 162 165 168 170 165 165 163 164 165 164 163 163 164 176 182 177 180 189 211 245 246 218 202 214 222
252 244 229 216 207 203 194 191 189 188 186 188 189 192 188 177 167 170 170 172 167 167 167 166 169 164 164 167 164 161 164 167 172 179 194 209 218 212 233 250 249 258 245
263 250 232 215 208 204 200 197 193 191 189 190 191 194 192 186 184 180 180 173 172 173 173 168 171 168 165 165 161 160 167 173 177 188 195 211 233 245 250 252 259 265 264
293 269 251 235 223 209 202 200 202 197 193 192 193 193 194 193 189 183 180 180 178 175 167 168 169 167 164 162 164 165 170 174 182 192 198 204 213 218 230 239 246 258 254
323 299 270 250 239 221 210 209 206 200 197 196 192 196 192 191 186 180 180 179 175 163 165 168 169 167 167 169 169 176 176 177 185 191 197 207 204 216 228 236 235 245 261
337 321 291 255 243 230 213 208 206 201 196 194 195 194 192 189 185 182 182 178 174 169 169 172 175 171 171 173 176 180 181 183 187 194 202 208 210 212 215 225 235 243 257
336 323 314 296 254 208 191 191 196 197 192 192 192 190 189 187 186 187 186 182 178 176 176 178 179 178 178 179 183 190 185 191 194 196 206 212 215 216 217 219 230 234 241
341 335 329 322 304 245 208 193 191 196 196 189 189 191 188 186 188 190 187 184 183 181 181 181 181 183 185 187 191 193 192 199 203 204 208 216 215 223 227 226 235 240 240
346 349 348 338 307 272 243 227 206 199 193 190 191 190 191 191 193 192 186 185 185 182 183 184 185 187 188 191 196 197 198 205 210 212 216 220 220 227 228 232 239 244 245
339 338 334 331 315 288 261 237 230 208 193 192 195 198 199 196 193 188 184 185 186 185 186 188 190 191 191 194 196 199 205 209 214 219 224 227 227 232 234 236 240 244 246
331 324 318 321 314 294 281 262 241 221 200 196 200 205 204 195 190 186 184 185 188 191 190 190 192 193 196 197 196 199 207 212 216 220 225 229 231 238 241 243 243 243 246
316 316 317 312 304 290 272 256 241 225 211 207 207 202 198 194 192 191 187 186 189 191 192 196 196 197 200 195 202 206 209 215 221 225 227 227 226 231 238 244 250 251 249
315 312 309 305 300 293 275 253 242 220 213 211 207 201 198 199 198 192 191 192 192 193 197 200 202 207 205 202 208 211 220 222 226 228 229 228 228 232 239 242 247 251 253
319 313 309 308 304 294 284 271 241 218 214 213 211 204 200 201 198 198 200 198 195 198 202 204 208 214 213 209 215 214 224 230 231 230 233 235 235 229 238 246 250 253 253
316 313 308 304 299 290 279 251 232 224 221 220 217 210 203 199 199 203 204 201 199 203 206 209 213 219 218 212 218 218 225 230 234 234 235 235 239 234 236 246 253 258 261
324 323 318 312 304 304 285 246 241 238 240 240 232 218 212 207 207 210 208 206 205 210 209 216 221 224 227 217 219 219 225 231 234 234 234 233 238 240 237 246 253 258 265
320 320 316 309 306 305 282 262 258 253 258 253 233 219 215 216 214 213 211 207 205 211 219 225 229 231 234 227 223 221 225 229 234 236 237 233 231 242 244 250 255 261 272
319 318 314 311 309 296 274 268 269 274 263 239 225 219 215 208 209 211 214 210 208 216 225 232 236 236 234 232 227 225 228 233 237 240 241 239 235 246 252 254 260 267 272
315 313 308 306 305 293 275 269 280 283 257 236 231 222 213 214 215 214 214 212 212 219 226 232 239 240 234 231 231 233 234 234 239 244 245 249 248 253 255 254 261 263 259
312 310 305 302 302 298 287 280 281 264 238 228 227 222 215 216 219 220 216 216 216 220 225 230 238 241 236 230 223 225 227 228 236 242 241 246 249 250 256 257 253 250 251
305 301 294 294 297 299 294 293 281 250 234 229 223 221 220 217 222 228 230 231 235 236 235 237 238 241 244 237 229 231 231 230 235 245 248 247 246 245 247 251 252 251 251
299 297 296 296 299 299 297 296 281 248 231 226 222 220 220 221 226 235 258 251 249 254 253 254 253 251 253 254 244 245 249 249 242 244 244 248 251 253 256 258 259 257 256